Location: New Frontier Mobile Home Park
(32.8448°N, 116.9675°W)
Time: 22:00:29
(UTC+00:00)

SEDSat Delta rocket - Pass Details

Date: 14 July 2020
Orbit: 533 x 1000 km, 31.4° (Epoch: 05 August)

Event Time Altitude Azimuth Distance (km) Brightness Sun altitude
Rises 03:21:03 0° 232° (SW) 3,008 6.9 -5.2°
Reaches altitude 10° 03:23:25 10° 225° (SW) 2,168 6.0 -5.6°
Maximum altitude 03:28:10 38° 157° (SSE) 1,158 4.1 -6.5°
Drops below altitude 10° 03:33:35 10° 90° (E) 2,477 5.6 -7.4°
Enters shadow 03:35:52 - 84° (E) 3,277 6.3 -7.9°
